Terug naar catalogus

STARLINK-34127

ActiefCommunicatieVLEO
NORAD 63810·PAYLOAD·🇺🇸 United States

Gelanceerd May 4, 2025 vanaf Cape Canaveral Space Force Station

Loading…

Volgende Passages (komende 24 uur)

TLE

VersSource: CelesTrak SupGP

Epoch: Sep 15, 2026, 02:20 UTC

1 63810C 25092G   26258.09770833 -.00038723  00000+0 -14026-2 0  2583
2 63810  43.0010 182.7502 0001095 270.9867  84.7904 15.27595604    14

Volg STARLINK-34127 in realtime met AllMySat

Download on the App Store